Regional Weather Roundup
Issued by NWS

Home | Current Version | Previous Version | Text Only | Print | Product List | Glossary On
Versions: 1 2 3 4 5 6 7 8 9 10 11 12 13 14 15 16 17 18 19 20 21 22 23 24 25 26 27 28 29 30 31 32 33 34 35 36 37 38 39 40 41 42 43 44 45 46 47 48 49 50
000
ASUS43 KLSX 211159
RWRMO

WEATHER SUMMARY FOR MISSOURI
NATIONAL WEATHER SERVICE SPRINGFIELD MO
700 AM CDT TUE APR 21 2015

NOTE: "FAIR" INDICATES FEW OR NO CLOUDS BELOW 12,000 FEET WITH NO
       SIGNIFICANT WEATHER AND/OR OBSTRUCTIONS TO VISIBILITY.
       CURRENT SKY AND/OR WEATHER CONDITIONS ARE NOT AVAILABLE FOR
       CHILLICOTHE AND FARMINGTON.

MOZ001>031-035>038-043-044-053-054-211300-
...NORTHERN AND WESTERN MISSOURI...

CITY           SKY/WX    TMP DP  RH WIND       PRES   REMARKS
KANSAS CTY INT MOCLDY    45  32  60 W6        29.86R
6HR MIN TEMP:  39; 6HR MAX TEMP:  46;

KANSAS C DTWN  MOCLDY    46  35  65 SW6       29.87R
6HR MIN TEMP:  44; 6HR MAX TEMP:  50;

LEE`S SUMMIT   PTCLDY    45  32  60 SW6       29.88R
6HR MIN TEMP:  42; 6HR MAX TEMP:  47;

ST JOSEPH      MOCLDY    44  32  62 SW7       29.86R
6HR MIN TEMP:  43; 6HR MAX TEMP:  47;

CHILLICOTHE      N/A     45  30  55 W3        29.84R
6HR MIN TEMP:  45; 6HR MAX TEMP:  48;

KIRKSVILLE     PTCLDY    42  26  53 W8        29.80R
6HR MIN TEMP:  42; 6HR MAX TEMP:  45;


$$
MOZ066>068-077>081-088>096-101>105-211300-
...SOUTHWEST MISSOURI...

CITY           SKY/WX    TMP DP  RH WIND       PRES   REMARKS
SPRINGFIELD    CLEAR     44  35  70 SW10      29.91R
6HR MIN TEMP:  42; 6HR MAX TEMP:  44;

JOPLIN         CLOUDY    50  37  61 SW10      29.93R
6HR MIN TEMP:  42; 6HR MAX TEMP:  50;


$$
MOZ032>034-039>042-045>050-055>058-069>072-211300-
...CENTRAL MISSOURI...

CITY           SKY/WX    TMP DP  RH WIND       PRES   REMARKS
COLUMBIA       MOCLDY    45  34  65 SW12      29.85R
6HR MIN TEMP:  43; 6HR MAX TEMP:  47;

JEFFERSON CITY CLOUDY    45  33  63 CALM      29.87R
6HR MIN TEMP:  44; 6HR MAX TEMP:  48;

ROLLA          CLEAR     41  32  70 SW9       29.86R
6HR MIN TEMP:  39; 6HR MAX TEMP:  42;

SEDALIA        MOCLDY    46  34  62 W8        29.88R
6HR MIN TEMP:  44; 6HR MAX TEMP:  47;

OSAGE BEACH    CLEAR     43  32  65 SW3       29.88R

$$
MOZ051-052-059>065-211300-
...EAST CENTRAL MISSOURI...

CITY           SKY/WX    TMP DP  RH WIND       PRES   REMARKS
ST LOUIS INTL  MOCLDY    49  30  48 W12       29.84R
6HR MIN TEMP:  47; 6HR MAX TEMP:  49;

SPIRIT OF STL  PTCLDY    46  31  55 SW12      29.84R
6HR MIN TEMP:  44; 6HR MAX TEMP:  47;

ST CHARLES     CLEAR     41  32  70 SW6       29.83R
6HR MIN TEMP:  40; 6HR MAX TEMP:  47;


$$
MOZ072>076-082>087-097>100-106>115-211300-
...SOUTH CENTRAL AND SOUTHEAST MISSOURI...

CITY           SKY/WX    TMP DP  RH WIND       PRES   REMARKS
CAPE GIRARDEAU CLEAR     44  37  76 SW7       29.92R
6HR MIN TEMP:  43; 6HR MAX TEMP:  47;

FARMINGTON     CLEAR     46  30  53 W6        29.91R
6HR MIN TEMP:  41; 6HR MAX TEMP:  46;

POPLAR BLUFF   CLEAR     44  35  70 SW5       29.93S
6HR MIN TEMP:  43; 6HR MAX TEMP:  49;

WEST PLAINS    CLEAR     41  32  70 SW7       29.94R
6HR MIN TEMP:  40; 6HR MAX TEMP:  43;


$$


USA.gov is the U.S. government's official web portal to all federal, state and local government web resources and services.